Regional Weather Roundup
Issued by NWS Kansas City/Pleasant Hill, MO

Home | Current Version | Previous Version | Text Only | Print | Product List | Glossary On
Versions: 1 2 3 4 5 6 7 8 9 10 11 12 13 14 15 16 17 18 19 20 21 22 23 24 25 26 27 28 29 30 31 32 33 34 35 36 37 38 39 40 41 42 43 44 45 46 47 48 49 50
000
ASUS43 KEAX 262110
RWREAX

WEATHER ROUNDUP FOR EASTERN KANSAS AND NORTHWEST MISSOURI
NATIONAL WEATHER SERVICE KANSAS CITY/PLEASANT HILL MO
300 PM CST THU FEB 26 2015

KSZ040-057-103>105-MOZ028-029-037-043-262200-
...KANSAS CITY METROPOLITAN AREA...

CITY           SKY/WX    TMP DP  RH WIND       PRES   REMARKS
K.C. INTL      MOSUNNY   20   1  43 N18       30.42S WCI   5
K.C. DOWNTOWN  SUNNY     22   0  38 N12       30.44R WCI  10
LEES SUMMIT    PTSUNNY   22   2  42 N13G24    30.41R WCI  10
OLATHE - IXD   SUNNY     21   1  41 N17G24    30.42S WCI   7
OLATHE - OJC   SUNNY     21   1  41 N16       30.40S WCI   7
LAWRENCE       SUNNY     22   0  38 N15G25    30.45S WCI   9

$$

MOZ001>008-011>017-020>025-030>033-038>040-044>046-053-054-262200-
...NORTHERN AND CENTRAL MISSOURI...

CITY           SKY/WX    TMP DP  RH WIND       PRES   REMARKS
ST. JOSEPH     MOSUNNY   18   0  45 N17       30.48S WCI   3
MOSBY            N/A     19   3  49 NW15      30.44S WCI   5
WARRENSBURG    MOSUNNY   21   3  45 NW12G23   30.42R WCI   9
WHITEMAN AFB   MOSUNNY   21   2  44 N20       30.39R WCI   6
CLINTON        SUNNY     27   5  39 N14G22    30.40R WCI  15
SEDALIA        SUNNY     22   5  48 N18G28    30.40R WCI   7
WARSAW         NOT AVBL
MARSHALL       SUNNY     21   5  49 N14G24    30.40S WCI   8
CHILLICOTHE      N/A     17   1  49 N8G20     30.45R WCI   7
MOBERLY        SUNNY     21   1  42 N12       30.37R WCI   9
KIRKSVILLE     SUNNY     16   0  49 N20       30.39R WCI  -1

$$

MOZ041-047>049-056>058-063>065-088>090-097-262200-
...EASTERN AND SOUTHERN MISSOURI...

CITY           SKY/WX    TMP DP  RH WIND       PRES   REMARKS
ST. LOUIS INTL FLURRIES  23  13  65 NW18      30.31R WCI   9
SPIRIT OF STL  PTSUNNY   23  11  60 N13       30.32R WCI  11
COLUMBIA       CLOUDY    24   7  48 N15G21    30.34R WCI  11
JEFFERSON CITY CLOUDY    23   5  46 NW12      30.36R WCI  12
MEXICO         SUNNY     21  10  63 NW14      30.35R WCI   8
HANNIBAL       SUNNY     18  -4  38 NW17      30.37R WCI   2
ROLLA          CLOUDY    21   9  59 NW14      30.28R WCI   8
OSAGE BEACH    PTSUNNY   25   7  46 NW10G21   30.34R WCI  15
SPRINGFIELD    SUNNY     26   6  42 N15       30.29R WCI  14
BRANSON        PTSUNNY   28  10  47 N14G21    30.27S WCI  17
NEVADA         SUNNY     25   3  39 N15       30.40R WCI  12
JOPLIN         SUNNY     28   4  35 N16       30.37R WCI  16
WEST PLAINS    PTSUNNY   24  12  60 N16       30.26R WCI  11

$$

IAZ060-094-KSZ022-034>040-054-083-096-NEZ052-066-093-262200-
...KANSAS...SOUTHEAST NEBRASKA AND IOWA...

CITY           SKY/WX    TMP DP  RH WIND       PRES   REMARKS
TOPEKA         SUNNY     22   0  38 N15G22    30.47R WCI   9
MANHATTAN      SUNNY     21  -2  36 N13G20    30.48S WCI   9
EMPORIA        SUNNY     22   0  38 N17G23    30.42R WCI   8
CHANUTE        SUNNY     26   4  38 N14G23    30.41R WCI  14
WICHITA        MOSUNNY   26  -3  28 N15       30.42S WCI  14
OMAHA          FLURRIES  11   2  67 N20       30.51S WCI  -7
LINCOLN        CLOUDY    15   0  51 N17G24    30.52R WCI  -1
FALLS CITY     SUNNY     17  -3  41 N15G25    30.48S WCI   2
LAMONI         MOSUNNY   10  -2  58 NW14      30.42S WCI  -6
DES MOINES     PTSUNNY   10  -2  58 NW13      30.45S WCI  -5

$$




USA.gov is the U.S. government's official web portal to all federal, state and local government web resources and services.